Regional Weather Roundup
Issued by NWS Kansas City/Pleasant Hill, MO

Home | Current Version | Previous Version | Graphics & Text | Print | Product List | Glossary Off
Versions: 1 2 3 4 5 6 7 8 9 10 11 12 13 14 15 16 17 18 19 20 21 22 23 24 25 26 27 28

000
ASUS43 KEAX 111410
RWREAX

WEATHER ROUNDUP FOR EASTERN KANSAS AND NORTHWEST MISSOURI
NATIONAL WEATHER SERVICE KANSAS CITY/PLEASANT HILL MO
800 AM CST MON DEC 11 2017

KSZ040-057-103>105-MOZ028-029-037-043-111500-
...KANSAS CITY METROPOLITAN AREA...

CITY           SKY/WX    TMP DP  RH WIND       PRES   REMARKS
K.C. INTL      CLOUDY    37  18  46 W10       29.95S WCI  30
K.C. DOWNTOWN  CLOUDY    38  21  50 SW7       29.96S WCI  33
LEES SUMMIT    PTCLDY    41  19  41 W12       29.96S WCI  34
OLATHE - IXD   CLOUDY    37  19  48 W9        30.00R WCI  30
OLATHE - OJC   CLOUDY    39  18  42 W9        29.98S WCI  33
LAWRENCE       CLOUDY    34  20  56 NW6       30.01R WCI  29

$$

MOZ001>008-011>017-020>025-030>033-038>040-044>046-053-054-111500-
...NORTHERN AND CENTRAL MISSOURI...

CITY           SKY/WX    TMP DP  RH WIND       PRES   REMARKS
ST. JOSEPH     CLEAR     34  21  59 S5        29.94F WCI  30
MOSBY          CLOUDY    27  21  80 CALM      29.94F
WARRENSBURG    MOCLDY    37  21  52 SW9       29.95S WCI  31
WHITEMAN AFB   PTCLDY    40  20  44 W12       29.90F WCI  33
CLINTON        CLEAR     39  25  56 SW10      29.98S WCI  32
SEDALIA        PTCLDY    42  23  46 SW17G23   29.94F WCI  34
WARSAW         NOT AVBL
CHILLICOTHE      N/A     37  22  54 SW5       29.89F WCI  33
KIRKSVILLE     PTCLDY    37  25  61 SW10      29.82F WCI  30

$$

MOZ041-047>049-056>058-063>065-088>090-097-111500-
...EASTERN AND SOUTHERN MISSOURI...

CITY           SKY/WX    TMP DP  RH WIND       PRES   REMARKS
ST. LOUIS INTL MOCLDY    38  28  67 S7        29.96F WCI  33
SPIRIT OF STL  MOCLDY    31  28  89 CALM      29.95F
COLUMBIA       PTCLDY    37  27  67 SW12      29.91F WCI  29
JEFFERSON CITY CLEAR     38  24  57 CALM      29.94F
ROLLA          CLEAR     41  23  48 SW16      29.97F WCI  33
OSAGE BEACH    CLEAR     40  23  50 SW7       29.98F
SPRINGFIELD    CLEAR     40  23  50 SW8       30.05S WCI  34
BRANSON        CLEAR     46  18  31 SW10      30.09F
JOPLIN         CLEAR     46  21  37 SW13      30.08S
WEST PLAINS    CLEAR     38  24  57 SW7       30.08F WCI  33

$$

IAZ060-094-KSZ022-034>040-054-083-096-NEZ052-066-093-111500-
...KANSAS...SOUTHEAST NEBRASKA AND IOWA...

CITY           SKY/WX    TMP DP  RH WIND       PRES   REMARKS
TOPEKA         CLEAR     37  19  48 W10       30.03R WCI  30
MANHATTAN      CLEAR     31  16  54 SW7       30.06F WCI  24
EMPORIA        CLEAR     39  13  34 W13       30.08R WCI  31
CHANUTE        CLEAR     40  17  39 W9        30.06F WCI  34
WICHITA        PTCLDY    45  11  25 NW12      30.11S
OMAHA          PTCLDY    44  20  38 NW24G35   29.92R WCI  35
LINCOLN        CLOUDY    46  18  32 W18       29.98S
FALLS CITY     CLOUDY    42  17  36 W18       29.94F WCI  34
LAMONI         CLEAR     37  20  50 W16       29.82F WCI  28
DES MOINES     CLOUDY    32  22  66 W6        29.78F WCI  26

$$





USA.gov is the U.S. government's official web portal to all federal, state and local government web resources and services.